Retour au catalogue

STARLINK-5791

ActifCommunicationsVLEO
NORAD 57146·PAYLOAD·🇺🇸 United States

Lancé Jun 23, 2023 depuis Cape Canaveral Space Force Station

Loading…

Prochains Passages (prochaines 24 heures)

TLE

FraisSource: CelesTrak SupGP

Époque: Sep 15, 2026, 01:33 UTC

1 57146C 23090AX  26258.06506944  .00007756  00000+0  28095-3 0  2583
2 57146  43.0035 273.7066 0001945 272.9160 226.8632 15.27571323    13

Suivez STARLINK-5791 en temps réel avec AllMySat

Download on the App Store